Find REAL

NORAD ID: 64875 Int'l Des: 2025-154 Owner: DART Country: US operational
LEOCIRCULARRETROGRADESSO

Current View

Loading 3D Globe...

About REAL

Description loading...

Upcoming Passes

Passes for default location (London). Set your location on the main map for personalized predictions.

Altitude History

Loading altitude history...

Two-Line Element Set

1 64875U 25154G 26150.65774352 .00027777 00000-0 90166-3 0 9995
2 64875 97.4044 218.9878 0001849 126.1749 233.9664 15.31914803 47363
Epoch: May 30, 2026 • Age: 14 hours

Current Status

Altitude 479.4 km
Velocity 7.63 km/s
Sub-Earth Point 58.38°N, 133.56°W
Launch Date Jul 23, 2025
Age 0.8 years
Type other

Technical Details

Classification Payload
Mass 5.00 kg
Dry Mass 5.00 kg
Total Mass 5.00 kg
Length 0.30 m
Diameter 0.10 m
Span 0.30 m
Shape Box
Manufacturer DART
Bus Type Cubesat 3U
Phase Status In Orbit
Owner/State DART/US

Most Searched